Retour au catalogue

STARLINK-6176

ActifCommunicationsVLEO
NORAD 56388·PAYLOAD·🇺🇸 United States

Lancé May 4, 2023 depuis Cape Canaveral Space Force Station

Loading…

Prochains Passages (prochaines 24 heures)

TLE

FraisSource: CelesTrak SupGP

Époque: Sep 14, 2026, 21:46 UTC

1 56388C 23061Q   26257.90743056  .00004750  00000+0  17208-3 0  2571
2 56388  43.0007 209.6698 0001056 256.2922  99.5574 15.27570104    18

Suivez STARLINK-6176 en temps réel avec AllMySat

Download on the App Store